Regional Weather Roundup
Issued by NWS

Home | Current Version | Previous Version | Text Only | Print | Product List | Glossary Off
Versions: 1 2 3 4 5 6 7 8 9 10 11 12 13 14 15 16 17 18 19 20 21 22 23 24 25 26 27 28 29 30 31 32 33 34 35 36 37 38 39 40 41 42 43 44 45 46 47 48 49 50

000
ASUS45 KTFX 051210
RWRMT
MONTANA REGIONAL WEATHER ROUNDUP
NATIONAL WEATHER SERVICE GREAT FALLS MT
600 AM MDT SUN JUL 05 2015

NOTE: "FAIR" INDICATES FEW OR NO CLOUDS BELOW 12000 FEET WITH NO
SIGNIFICANT WEATHER AND/OR OBSTRUCTIONS TO VISIBILITY.

MTZ001>007-043-051300-
WEST OF THE DIVIDE

CITY           SKY/WX    TMP DP  RH WIND       PRES   REMARKS
KALISPELL      CLOUDY    58  43  57 N21G31    30.03R
MISSOULA       CLEAR     66  47  50 E20G25    29.96R
BUTTE          PTCLDY    55  48  77 NE9       30.08R
MULLAN PASS    PTCLDY    54  44  69 MISG      30.03R
DEER LODGE       N/A     57  48  72 NE7       30.13R
EUREKA           N/A     55  52  88 CALM        N/A
HAMILTON         N/A     61  46  59 E1        29.92R
LIBBY            N/A     64  45  48 N9        30.04R
RONAN            N/A     63  50  62 CALM      30.01R
$$

MTZ008-052>055-051300-
SOUTHWEST MONTANA

CITY           SKY/WX    TMP DP  RH WIND       PRES   REMARKS
BOZEMAN        MOCLDY    60  51  72 SE9G20    30.01R
DILLON         MOCLDY    57  49  74 NE13      30.01R
W YELLOWSTONE  MOCLDY    57  45  62 CALM      30.07R
THREE FORKS      N/A     61  61 100 N10       30.04R
TWIN BRIDGES     N/A     59  47  64 N23       29.97R
$$

MTZ009-010-012-014-046-048-049-054-051300-
EAST SLOPES AND CENTRAL MONTANA

CITY           SKY/WX    TMP DP  RH WIND       PRES   REMARKS
CUT BANK       LGT RAIN  49  47  93 N22       30.17R
GREAT FALLS    LGT RAIN  53  52  96 N13       30.11R FOG
MALMSTROM AFB  DRIZZLE   54  52  94 N17       30.11R FOG
HELENA         CLOUDY    58  48  69 N13G23    30.09R
$$

MTZ011-013-016-021-045-047-050-051-051300-
NORTH CENTRAL MONTANA

CITY           SKY/WX    TMP DP  RH WIND       PRES   REMARKS
LEWISTOWN      CLOUDY    59  50  72 N5        30.07R HAZE
$$

MTZ017>020-022>027-061-062-051300-
NORTHEAST MONTANA

CITY           SKY/WX    TMP DP  RH WIND       PRES   REMARKS
GLASGOW        MOCLDY    58  52  80 NW9       29.95R HAZE
JORDAN           N/A     58  54  86 N17       29.94R
SIDNEY         CLOUDY    64  61  88 N10       29.84F
WOLF POINT     CLOUDY    61  55  81 NE7       29.92S HAZE
PLENTYWOOD       N/A     59  54  82 N7        29.91R
POPLAR           N/A     61  57  88 N6        29.92R
$$

MTZ028>42-056>058-051300-
SOUTHCENTRAL AND SOUTHEAST MONTANA

CITY           SKY/WX    TMP DP  RH WIND       PRES   REMARKS
BAKER          PTCLDY    64  60  87 NE17G24   29.86R
BILLINGS       CLOUDY    63  52  67 NE14      30.01R HAZE
LIVINGSTON     MOCLDY    60  50  69 N15       30.04R
MILES CITY     PTCLDY    64  57  78 NE25G36   29.84R
FORSYTH          N/A     63  57  82 NE8       29.88R
LAUREL           N/A     62  50  65 N7        30.00R
ROUNDUP          N/A     59  50  72 N18       29.92R
$$

REGIONAL REPORTS...DAKOTAS

CITY           SKY/WX    TMP DP  RH WIND       PRES   REMARKS
WILLISTON      LGT RAIN  64  63  96 N8        29.87F FOG
MINOT          CLOUDY    64  61  90 N10       29.80R
DICKINSON      CLOUDY    64  60  87 NE10      29.80R
BEACH          CLOUDY    63  63 100 N20G28    29.91R
CROSBY         CLOUDY    63  63 100 N12G22    29.89F FOG
BISMARCK       CLOUDY    68  67  96 E6        29.71R FOG
GRAND FORKS    PTSUNNY   70  67  90 SE15      29.75S
FARGO          MOSUNNY   70  65  84 E8        29.78R HAZE
BUFFALO SD       N/A     70  60  70 NE16      29.68S
RAPID CITY     PTCLDY    65  61  87 E3        29.77F
$$

REGIONAL REPORTS...WYOMING/IDAHO/WASHINGTON

CITY           SKY/WX    TMP DP  RH WIND       PRES   REMARKS
GILLETTE       CLEAR     69  56  62 S10       29.81S
SHERIDAN       PTCLDY    67  57  70 NW28G35   29.86R
BUFFALO WY     MOCLDY    68  52  56 N22G35    29.88R
CODY           MOCLDY    64  52  63 N16G24    29.99R
YELLOWSTONE LA   N/A     47  39  74 CALM      30.18R
IDAHO FALLS    CLOUDY    72  50  45 S16       29.94R
SALMON         CLOUDY    64  48  55 CALM      29.87R
BOISE          CLOUDY    75  47  36 SE3       29.84R
SPOKANE        MOCLDY    74  28  18 N10       29.81R
$$

REGIONAL REPORTS...ALBERTA

CITY           SKY/WX    TMP DP  RH WIND       PRES   REMARKS
EDMONTON       CLOUDY    54  45  71 NW12      30.11S
CALGARY        MOCLDY    50  46  87 N10       30.19R
LETHBRIDGE     LGT RAIN  50  48  93 W10       30.18R
MEDICINE HAT   MOCLDY    55  52  88 W7        30.11R
CARDSTON         N/A     48  48 100 W8          N/A
MILK RIVER       N/A     50  50 100 NW13        N/A
ONEFOUR          N/A     52  50  93 NW18        N/A
$$

REGIONAL REPORTS...SASKATCHEWAN

CITY           SKY/WX    TMP DP  RH WIND       PRES   REMARKS
SWIFT CURRENT  MOCLDY    54  48  82 NW12G17   30.00S
REGINA         CLOUDY    57  55  94 NW6       29.92F FOG
SASKATOON      PTCLDY    52  48  87 NW7       29.96S
CYPRESS HILLS    N/A     48  45  87 NW7         N/A
VAL MARIE        N/A     54  52  94 N5          N/A
ROCKGLEN         N/A     55  52  88 NW8         N/A
$$



USA.gov is the U.S. government's official web portal to all federal, state and local government web resources and services.